Weather History for Port Angeles, WA

Change the Weather History Date:

Saturday, September 28, 2013

  Actual Average Record
Temperature  
Mean Temperature 52 °F -  
Max Temperature 57 °F 63 °F 77 °F (2003)
Min Temperature 46 °F 46 °F 35 °F (1999)
Degree Days  
Heating Degree Days 14    
Growing Degree Days 2 (Base 50)    
Moisture  
Dew Point 51 °F    
Average Humidity 93    
Maximum Humidity 97    
Minimum Humidity 77    
Precipitation  
Precipitation 1.52 in - - ()
Sea Level Pressure  
Sea Level Pressure 29.42 in    
Wind  
Wind Speed 5 mph (West)    
Max Wind Speed 15 mph    
Max Gust Speed 18 mph    
Visibility 6 miles    
Events Rain    
Averages and records for this station are not official NWS values.
T = Trace of Precipitation, MM = Missing Value Source: NWS Daily Summary

Daily Weather History Graph

Daily Weather History Graph

Search for Another Location

Airport:

Trip Planner

Search our weather history database for the weather conditions in past years. The results will help you decide how hot, cold, wet, or windy it might be!

Date:

Astronomy

Sep. 28, 2013 Rise Set
Actual Time 7:09 AM PDT 6:58 PM PDT
Civil Twilight 6:38 AM PDT 7:29 PM PDT
Nautical Twilight 6:02 AM PDT 8:05 PM PDT
Astronomical Twilight 5:25 AM PDT 8:42 PM PDT
Moon 12:38 AM PDT (9/28) 3:42 PM PDT (9/28)
Length of Visible Light 12h 51m
Length of Day
11h 49m
Waning Crescent, 35% of the Moon is Illuminated
Sep 28
Waning Crescent
Oct 4
New
Oct 11
First Quarter
Oct 18
Full
Oct 26
Last Quarter

Hourly Weather History & Observations

Time (PDT) Temp. Dew Point Humidity Pressure Visibility Wind Dir Wind Speed Gust Speed Precip Events Conditions
12:53 AM 51.1 °F 48.9 °F 92% 29.79 in 10.0 mi WSW 4.6 mph - N/A   Overcast
1:53 AM 50.0 °F 48.9 °F 96% 29.76 in 10.0 mi Calm Calm - N/A   Mostly Cloudy
2:53 AM 52.0 °F 48.9 °F 89% 29.73 in 10.0 mi Calm Calm - 0.00 in   Overcast
3:53 AM 52.0 °F 50.0 °F 93% 29.69 in 10.0 mi Calm Calm - 0.01 in Rain Light Rain
4:53 AM 51.1 °F 50.0 °F 96% 29.65 in 10.0 mi Calm Calm - 0.02 in Rain Light Rain
5:53 AM 51.1 °F 50.0 °F 96% 29.61 in 10.0 mi ESE 3.5 mph - 0.01 in Rain Light Rain
6:53 AM 51.1 °F 48.9 °F 92% 29.56 in 10.0 mi SSE 5.8 mph - 0.01 in Rain Light Rain
7:53 AM 51.1 °F 48.9 °F 92% 29.50 in 3.0 mi NNW 3.5 mph - 0.07 in Rain Rain
8:53 AM 51.1 °F 48.9 °F 92% 29.47 in 4.0 mi WNW 5.8 mph - 0.12 in Rain Light Rain
9:15 AM 51.1 °F 48.9 °F 92% 29.46 in 5.0 mi West 5.8 mph - 0.04 in Rain Light Rain
9:53 AM 51.1 °F 50.0 °F 96% 29.44 in 5.0 mi Calm Calm - 0.09 in Rain Light Rain
10:53 AM 52.0 °F 50.0 °F 93% 29.42 in 9.0 mi Calm Calm - 0.10 in Rain Light Rain
11:53 AM 55.0 °F 53.1 °F 93% 29.37 in 5.0 mi ESE 6.9 mph - 0.07 in Rain Light Rain
12:53 PM 57.0 °F 54.0 °F 89% 29.32 in 5.0 mi SSE 3.5 mph - 0.15 in Rain Light Rain
1:13 PM 55.0 °F 53.1 °F 93% 29.34 in 2.5 mi NW 8.1 mph 17.3 mph 0.07 in Rain Rain
1:24 PM 55.0 °F 54.0 °F 96% 29.34 in 1.5 mi NNW 4.6 mph - 0.13 in Rain Rain
1:50 PM 53.6 °F 51.8 °F 94% 29.34 in 2.5 mi Variable 3.5 mph - 0.23 in Rain Rain
1:53 PM 53.1 °F 52.0 °F 96% 29.34 in 2.0 mi NE 4.6 mph - 0.25 in Rain Rain
1:59 PM 52.0 °F 51.1 °F 97% 29.34 in 1.8 mi Variable 3.5 mph - 0.03 in Rain Rain
2:06 PM 52.0 °F 51.1 °F 97% 29.33 in 2.5 mi ESE 6.9 mph - 0.06 in Rain Rain
2:16 PM 53.1 °F 52.0 °F 96% 29.30 in 5.0 mi ESE 11.5 mph - 0.07 in Rain Light Rain
2:23 PM 54.0 °F 52.0 °F 93% 29.27 in 10.0 mi East 10.4 mph - 0.07 in Rain Light Rain
2:53 PM 53.1 °F 52.0 °F 96% 29.29 in 5.0 mi ESE 15.0 mph - 0.10 in Rain Light Rain
3:19 PM 53.1 °F 52.0 °F 96% 29.30 in 4.0 mi ESE 4.6 mph - 0.06 in Rain Rain
3:53 PM 54.0 °F 53.1 °F 97% 29.30 in 5.0 mi NW 3.5 mph - 0.10 in Rain Light Rain
4:01 PM 54.0 °F 52.0 °F 93% 29.31 in 4.0 mi WNW 8.1 mph - 0.02 in Rain Light Rain
4:12 PM 54.0 °F 53.1 °F 97% 29.34 in 2.5 mi WNW 10.4 mph 17.3 mph 0.05 in Rain Light Rain
4:14 PM 54.0 °F 53.1 °F 97% 29.34 in 3.0 mi WNW 13.8 mph 18.4 mph 0.06 in Rain Light Rain
4:19 PM 53.1 °F 52.0 °F 96% 29.34 in 2.5 mi NW 9.2 mph - 0.08 in Rain Rain
4:40 PM 53.1 °F 51.1 °F 93% 29.35 in 3.0 mi WNW 10.4 mph - 0.18 in Rain Rain
4:44 PM 53.1 °F 51.1 °F 93% 29.35 in 2.5 mi NW 6.9 mph - 0.20 in Rain Rain
4:53 PM 52.0 °F 51.1 °F 97% 29.34 in 2.5 mi NW 9.2 mph - 0.22 in Rain Rain
4:59 PM 53.1 °F 51.1 °F 93% 29.33 in 4.0 mi NW 8.1 mph - 0.01 in Rain Light Rain
5:53 PM 53.1 °F 51.1 °F 93% 29.31 in 10.0 mi WNW 4.6 mph - 0.03 in Rain Light Rain
6:53 PM 53.1 °F 48.9 °F 86% 29.36 in 10.0 mi West 11.5 mph - 0.03 in Rain Light Rain
7:53 PM 53.1 °F 46.0 °F 77% 29.36 in 10.0 mi SW 9.2 mph - 0.00 in   Clear
8:53 PM 46.9 °F 45.0 °F 93% 29.38 in 10.0 mi ESE 3.5 mph - N/A   Mostly Cloudy
9:53 PM 50.0 °F 46.9 °F 89% 29.41 in 10.0 mi SW 8.1 mph - 0.00 in Rain Light Rain
10:53 PM 48.9 °F 46.9 °F 93% 29.42 in 10.0 mi WSW 4.6 mph - 0.01 in   Overcast
11:53 PM 50.0 °F 48.0 °F 93% 29.42 in 5.0 mi SW 5.8 mph - 0.13 in Rain Rain